PICO-02I029

operational
NORAD ID: 60568 Int'l Des: 2024-149 Owner: APOGEO Country: I
LEOCIRCULARRETROGRADESSO

关于 PICO-02I029

正在加载描述...

实时位置

正在加载3D地球...

即将过境

高度历史

Altitude vs Time

uPlot chart will show altitude changes over time

两行轨道根数

1 60568U 24149DE 25340.89116783 .00213534 00000-0 41798-2 0 9991
2 60568 97.6908 68.3517 0002401 290.0667 70.0323 15.46599625 72144
Epoch: Dec 6, 2025 • Age: 17 hours

当前状态

高度 431.0 km
速度 7.65 km/s
星下点 -14.11°S, 138.34°E
发射日期 Aug 16, 2024
运行时间 1.3 years
类型 other

技术详情

分类 Payload
质量 0.50 kg
干质量 0.50 kg
总质量 0.50 kg
长度 0.03 m
直径 0.10 m
跨度 0.10 m
形状 Box
制造商 APOGEO
平台类型 Cubesat 0.3U
阶段状态 In Orbit
所有者/国家 APOGEO/I

大型星座

Loading constellations...